Regional Weather Roundup
Issued by NWS

Home | Current Version | Previous Version | Graphics & Text | Print | Product List | Glossary On
Versions: 1 2 3 4 5 6 7 8 9 10 11 12 13 14 15 16 17 18 19 20 21 22 23 24 25 26 27 28 29 30 31 32 33 34 35 36 37 38 39 40 41 42 43 44 45 46 47 48 49 50
000
ASUS43 KDMX 261703
RWRIA

WEATHER ROUNDUP FOR IOWA
NATIONAL WEATHER SERVICE DES MOINES IA
1200 PM CDT TUE JUL 26 2016

NOTE: "FAIR" INDICATES FEW OR NO CLOUDS BELOW 12,000 FEET WITH NO
SIGNIFICANT WEATHER AND/OR OBSTRUCTIONS TO VISIBILITY.

* - THESE STATIONS ARE NOT NWS STATIONS...THUS NOT UNDER NWS
QUALITY CONTROL.  THEY ALSO DO NOT REPORT WEATHER SUCH
AS PRECIPITATION OR FOG.

IAZ001>003-012>014-020>022-031>034-043>046-261800-
   NORTHWEST IOWA

CITY           SKY/WX    TMP DP  RH WIND       PRES   REMARKS
CARROLL *      SUNNY     82  66  57 SE5       30.10S HX  85
CHEROKEE *     SUNNY     83  64  52 S8        30.09F HX  85
DENISON *      SUNNY     82  66  57 S6        30.09R HX  85
LE MARS *      SUNNY     82  68  61 S10G17    30.09S HX  85
SHELDON *      SUNNY     82  68  61 SW9       30.07F HX  85
SIOUX CITY     SUNNY     85  68  56 SW12      30.08S HX  88
SPENCER        SUNNY     83  64  52 SW9       30.09S HX  84
STORM LAKE *   SUNNY     81  66  61 S7        30.11S HX  83
$$

IAZ055>058-069>071-079>083-090>094-261800-
   SOUTHWEST IOWA

CITY           SKY/WX    TMP DP  RH WIND       PRES   REMARKS
ATLANTIC *     SUNNY     82  64  54 S5        30.09S HX  84
CLARINDA *       N/A     82  66  57 MISG      30.10S HX  85
COUNCIL BLFS * SUNNY     82  64  54 SE6       30.10S HX  84
CRESTON *      SUNNY     81  66  61 VRB5G13   30.11S HX  83
HARLAN  *      SUNNY     81  66  61 VRB6      30.13S HX  83
LAMONI         SUNNY     80  64  58 SE7       30.09S HX  82
RED OAK *      SUNNY     82  66  57 SE7       30.09S HX  85
SHENANDOAH *   SUNNY     82  66  57 SE8       30.09S HX  85
$$

IAZ047>049-059>061-072>074-084-261800-
   CENTRAL IOWA

CITY           SKY/WX    TMP DP  RH WIND       PRES   REMARKS
AMES           MOSUNNY   83  66  56 VRB5      30.09S HX  85
ANKENY *         N/A    N/A N/A N/A MISG        N/A
BOONE *        SUNNY     82  66  57 S3        30.09S HX  85
CHARITON *       N/A    N/A N/A N/A MISG        N/A
DES MOINES     MOSUNNY   85  65  51 SE3       30.08S HX  86
GRINNELL*      SUNNY     82  63  52 E8        30.10S HX  83
KNOXVILLE *    SUNNY     81  63  54 SE5       30.07S HX  82
MARSHALLTOWN   SUNNY     82  67  60 VRB5      30.09S HX  84
NEWTON *       SUNNY     82  66  57 E7        30.08S HX  85
PELLA *        MOSUNNY   82  63  52 E5        30.09S HX  83
PERRY *          N/A     82  67  60 SE3       30.09S HX  84
$$

IAZ004>006-015-016-023>025-035-036-261800-
   NORTH CENTRAL IOWA

CITY           SKY/WX    TMP DP  RH WIND       PRES   REMARKS
ALGONA *       SUNNY     82  68  61 SW8       30.10F HX  85
ESTHERVILLE    SUNNY     81  65  58 SW10      30.09S HX  83
FORT DODGE *   SUNNY     82  66  57 CALM      30.11S HX  85
MASON CITY     SUNNY     83  66  56 VRB3      30.11S HX  85
FOREST CITY *    N/A     81  64  57 S6        30.11S HX  82
IOWA FALLS *     N/A     83  64  52 CALM      30.11S HX  84
$$

IAZ007>011-017>019-026>030-037>042-050>054-066-261800-
   NORTHEAST IOWA

CITY           SKY/WX    TMP DP  RH WIND       PRES   REMARKS
CEDAR RAPIDS   PTSUNNY   82  67  60 VRB6      30.08F HX  84
CHARLES CITY * SUNNY     81  63  54 CALM      30.11S HX  82
CLINTON *      PTSUNNY   82  66  58 CALM      30.09S HX  84
DECORAH *      PTSUNNY   81  66  61 CALM      30.09F HX  83
DUBUQUE        MOSUNNY   79  64  60 S3        30.10F HX  81
MONTICELLO *   PTSUNNY   82  64  54 VRB3      30.09S HX  84
OELWEIN *      SUNNY     81  64  57 NE5       30.10F HX  82
WATERLOO       MOSUNNY   82  64  54 SE5       30.08S HX  83
$$

IAZ064-065-067-068-078-261800-
   EAST CENTRAL IOWA

CITY           SKY/WX    TMP DP  RH WIND       PRES   REMARKS
DAVENPORT      MOSUNNY   81  63  54 E5        30.08F HX  82
IOWA CITY      PTSUNNY   83  67  58 SE6       30.09F HX  85
MT. PLEASANT * MOSUNNY   82  66  58 NE3       30.08S HX  85
MUSCATINE *    PTSUNNY   84  64  51 E10       30.07F HX  86
QUAD CITIES    MOSUNNY   85  64  49 E7        30.06F HX  86
$$

IAZ062-063-075>077-085>089-095>099-261800-
   SOUTHEAST IOWA

CITY           SKY/WX    TMP DP  RH WIND       PRES   REMARKS
BURLINGTON     SUNNY     82  67  60 CALM      30.07S HX  84
FAIRFIELD *    MOSUNNY   82  64  54 E7        30.08S HX  84
KEOKUK *       SUNNY     82  64  54 VRB3      30.06F HAZE    HX  84
CENTERVILLE *    N/A     82  64  54 E5        30.10S HX  84
OTTUMWA        MOSUNNY   81  63  54 NE7       30.07S HX  82
WASHINGTON *   MOSUNNY   79  66  65 NE5       30.09S HX  81
$$

ABBREVIATIONS USED IN REMARKS
   TC - TEMPERATURES IN CELSIUS
  WCI - WIND CHILL INDEX
   HX - HEAT INDEX
  VSB - VISIBILITY
$$




USA.gov is the U.S. government's official web portal to all federal, state and local government web resources and services.